Time,TemperatureF,DewpointF,PressureIn,WindDirection,WindDirectionDegrees,WindSpeedMPH,WindSpeedGustMPH,Humidity,HourlyPrecipIn,Conditions,Clouds,dailyrainin,SoftwareType,DateUTC
2013-01-25 15:32:00,79.1,59.0,29.97,South,172,2.0,4.0,50,0.00,,,0.00,weatherlink.com 1.10,2013-01-25 21:32:00,
2013-01-25 15:39:00,79.1,59.0,29.97,South,172,3.0,4.0,50,0.00,,,0.00,weatherlink.com 1.10,2013-01-25 21:39:00,
2013-01-25 15:54:00,79.4,59.0,29.97,South,172,3.0,4.0,49,0.00,,,0.00,weatherlink.com 1.10,2013-01-25 21:54:00,
2013-01-25 16:09:00,79.3,59.0,29.96,South,172,3.0,4.0,50,0.00,,,0.00,weatherlink.com 1.10,2013-01-25 22:09:00,
2013-01-25 16:24:00,79.7,58.0,29.96,South,172,1.0,3.0,48,0.00,,,0.00,weatherlink.com 1.10,2013-01-25 22:24:00,
2013-01-25 16:39:00,75.8,58.0,29.97,NNE,21,13.0,19.0,55,0.00,,,0.00,weatherlink.com 1.10,2013-01-25 22:39:00,
2013-01-25 16:54:00,73.3,59.0,29.98,NNE,24,8.0,14.0,61,0.00,,,0.00,weatherlink.com 1.10,2013-01-25 22:54:00,
2013-01-25 17:09:00,72.5,59.0,29.99,NNE,25,8.0,12.0,62,0.00,,,0.00,weatherlink.com 1.10,2013-01-25 23:09:00,
2013-01-25 17:24:00,71.9,59.0,30.00,NE,42,7.0,11.0,63,0.00,,,0.00,weatherlink.com 1.10,2013-01-25 23:24:00,
2013-01-25 17:39:00,70.3,57.0,30.00,ENE,60,10.0,14.0,64,0.00,,,0.00,weatherlink.com 1.10,2013-01-25 23:39:00,
2013-01-25 17:54:00,68.8,55.0,30.01,NE,42,6.0,15.0,62,0.00,,,0.00,weatherlink.com 1.10,2013-01-25 23:54:00,
2013-01-25 18:09:00,67.4,55.0,30.02,NE,55,6.0,10.0,64,0.00,,,0.00,weatherlink.com 1.10,2013-01-26 00:09:00,
2013-01-25 18:24:00,66.8,54.0,30.03,NE,44,7.0,10.0,63,0.00,,,0.00,weatherlink.com 1.10,2013-01-26 00:24:00,
2013-01-25 18:39:00,65.9,54.0,30.04,ENE,60,9.0,9.0,65,0.00,,,0.00,weatherlink.com 1.10,2013-01-26 00:39:00,
2013-01-25 18:54:00,65.4,53.0,30.04,NE,49,7.0,10.0,65,0.00,,,0.00,weatherlink.com 1.10,2013-01-26 00:54:00,
2013-01-25 19:09:00,64.7,53.0,30.04,NE,55,9.0,13.0,66,0.00,,,0.00,weatherlink.com 1.10,2013-01-26 01:09:00,
2013-01-25 19:24:00,64.1,52.0,30.04,NE,40,8.0,12.0,66,0.00,,,0.00,weatherlink.com 1.10,2013-01-26 01:24:00,
2013-01-25 19:39:00,63.5,53.0,30.05,NE,47,9.0,12.0,68,0.00,,,0.00,weatherlink.com 1.10,2013-01-26 01:39:00,
2013-01-25 19:54:00,62.3,52.0,30.05,NE,45,12.0,13.0,68,0.00,,,0.00,weatherlink.com 1.10,2013-01-26 01:54:00,
2013-01-25 20:09:00,60.9,51.0,30.07,NE,45,10.0,16.0,69,0.00,,,0.00,weatherlink.com 1.10,2013-01-26 02:09:00,
2013-01-25 20:24:00,59.1,49.0,30.08,NNE,13,12.0,16.0,70,0.00,,,0.00,weatherlink.com 1.10,2013-01-26 02:24:00,
2013-01-25 20:39:00,57.5,48.0,30.08,NNE,33,8.0,15.0,71,0.00,,,0.00,weatherlink.com 1.10,2013-01-26 02:39:00,
2013-01-25 20:54:00,56.4,48.0,30.09,NNE,15,8.0,14.0,73,0.00,,,0.00,weatherlink.com 1.10,2013-01-26 02:54:00,
2013-01-25 21:09:00,55.2,47.0,30.09,NNE,27,12.0,15.0,73,0.00,,,0.00,weatherlink.com 1.10,2013-01-26 03:09:00,
2013-01-25 21:24:00,54.6,46.0,30.10,NNE,30,8.0,13.0,74,0.00,,,0.00,weatherlink.com 1.10,2013-01-26 03:24:00,
2013-01-25 21:39:00,54.1,46.0,30.10,NNE,25,8.0,13.0,75,0.00,,,0.00,weatherlink.com 1.10,2013-01-26 03:39:00,
2013-01-25 21:54:00,53.6,46.0,30.11,NNE,17,7.0,10.0,76,0.00,,,0.00,weatherlink.com 1.10,2013-01-26 03:54:00,
2013-01-25 22:09:00,53.1,46.0,30.11,NNE,27,4.0,9.0,76,0.00,,,0.00,weatherlink.com 1.10,2013-01-26 04:09:00,
2013-01-25 22:24:00,52.7,45.0,30.12,North,9,6.0,11.0,76,0.00,,,0.00,weatherlink.com 1.10,2013-01-26 04:24:00,
2013-01-25 22:39:00,52.3,45.0,30.12,NNE,15,4.0,9.0,77,0.00,,,0.00,weatherlink.com 1.10,2013-01-26 04:39:00,
2013-01-25 22:54:00,51.9,45.0,30.13,NNE,25,7.0,11.0,76,0.00,,,0.00,weatherlink.com 1.10,2013-01-26 04:54:00,
2013-01-25 23:09:00,51.5,45.0,30.13,NNE,29,4.0,8.0,77,0.00,,,0.00,weatherlink.com 1.10,2013-01-26 05:09:00,
2013-01-25 23:24:00,51.0,44.0,30.13,NNE,31,5.0,7.0,77,0.00,,,0.00,weatherlink.com 1.10,2013-01-26 05:24:00,
2013-01-25 23:39:00,50.8,44.0,30.13,NNE,31,6.0,7.0,78,0.00,,,0.00,weatherlink.com 1.10,2013-01-26 05:39:00,
2013-01-25 23:55:00,50.5,44.0,30.14,NNE,31,4.0,5.0,78,0.00,,,0.00,weatherlink.com 1.10,2013-01-26 05:55:00,